Location: Saint-Palais-sur-Mer
(45.6429°N, 1.0859°W)
Time: 21:02:47
(UTC+01:00)

Tiros 1 despin weight - All Passes

Search period start: 08 February 2026 00:00
Search period end: 18 February 2026 00:00
Orbit: 557 x 594 km, 48.2° (Epoch: 8 February)

Date Brightness Start Highest point End Pass type
(mag) Time Alt. Az. Time Alt. Az. Time Alt. Az.
8 Feb - 00:22:35 10° WNW 00:26:52 85° NNE 00:31:11 10° ESE night (unlit)
8 Feb - 02:03:25 10° W 02:07:12 31° SW 02:11:01 10° SSE night (unlit)
8 Feb - 19:23:52 10° SSW 19:27:34 31° SE 19:31:18 10° E visible
8 Feb - 21:03:41 10° WSW 21:07:54 84° NNW 21:12:09 10° ENE visible
8 Feb - 22:44:31 10° WNW 22:48:42 61° N 22:52:57 10° E night (unlit)
9 Feb - 00:25:12 10° WNW 00:29:26 77° SSW 00:33:44 10° ESE night (unlit)
9 Feb - 02:06:20 10° W 02:09:36 21° SW 02:12:54 10° S night (unlit)
9 Feb - 19:26:02 10° SW 19:30:01 43° SSE 19:34:02 10° ENE visible
9 Feb - 21:06:18 10° W 21:10:30 71° NNW 21:14:44 10° ENE visible
9 Feb - 22:47:09 10° WNW 22:51:21 65° N 22:55:36 10° E visible
10 Feb - 00:27:48 10° WNW 00:31:59 58° SSW 00:36:12 10° SE night (unlit)
10 Feb - 02:09:35 10° WSW 02:11:56 15° SW 02:14:18 10° S night (unlit)
10 Feb - 17:50:07 10° S 17:52:33 15° SE 17:54:58 10° E daylight
10 Feb - 19:28:22 10° SW 19:32:30 60° SSE 19:36:40 10° ENE visible
10 Feb - 21:08:57 10° W 21:13:08 63° N 21:17:21 10° ENE visible
10 Feb - 22:49:45 10° WNW 22:53:58 73° NNE 22:58:15 10° E visible
11 Feb - 00:30:27 10° WNW 00:34:27 42° SSW 00:38:30 10° SE night (unlit)
11 Feb - 17:51:36 10° SSW 17:54:52 22° SE 17:58:09 10° E daylight
11 Feb - 19:30:50 10° WSW 19:35:02 80° SSE 19:39:15 10° ENE visible
11 Feb - 21:11:36 10° W 21:15:46 60° N 21:19:58 10° E visible
11 Feb - 22:52:19 10° WNW 22:56:34 87° NNE 23:00:51 10° ESE visible
12 Feb - 00:33:10 10° W 00:36:53 29° SW 00:40:37 10° SSE night (unlit)
12 Feb - 17:53:30 10° SSW 17:57:15 32° SE 18:01:00 10° E daylight
12 Feb - 19:33:22 10° WSW 19:37:35 83° NNW 19:41:49 10° ENE visible
12 Feb - 21:14:13 10° WNW 21:18:24 61° N 21:22:36 10° E visible
12 Feb - 22:54:54 10° WNW 22:59:07 75° SSW 23:03:22 10° ESE visible
13 Feb - 00:36:05 10° W 00:39:15 20° SW 00:42:26 10° S night (unlit)
13 Feb - 17:55:40 10° SW 17:59:40 45° SSE 18:03:41 10° ENE daylight
13 Feb - 19:35:59 10° W 19:40:10 70° NNW 19:44:23 10° ENE visible
13 Feb - 21:16:49 10° WNW 21:21:01 65° N 21:25:14 10° E visible
13 Feb - 22:57:28 10° WNW 23:01:37 56° SSW 23:05:47 10° SE night (unlit)
14 Feb - 00:39:22 10° WSW 00:41:33 14° SW 00:43:43 10° SSW night (unlit)
14 Feb - 16:19:36 10° S 16:22:08 16° SE 16:24:40 10° E daylight
14 Feb - 17:57:59 10° SW 18:02:07 62° SSE 18:06:17 10° ENE daylight
14 Feb - 19:38:35 10° W 19:42:46 63° N 19:46:57 10° ENE visible
14 Feb - 21:19:23 10° WNW 21:23:36 74° NNE 21:27:50 10° E visible
14 Feb - 23:00:05 10° WNW 23:04:03 40° SSW 23:08:02 10° SE night (unlit)
15 Feb - 16:21:07 10° SSW 16:24:27 23° SE 16:27:47 10° E daylight
15 Feb - 18:00:25 10° WSW 18:04:37 82° SSE 18:08:50 10° ENE daylight
15 Feb - 19:41:12 10° W 19:45:22 60° N 19:49:33 10° E visible
15 Feb - 21:21:55 10° WNW 21:26:09 89° NNE 21:30:24 10° ESE visible
15 Feb - 23:02:48 10° W 23:06:26 28° SW 23:10:05 10° SSE night (unlit)
16 Feb - 16:23:01 10° SSW 16:26:47 33° SE 16:30:34 10° E daylight
16 Feb - 18:02:56 10° WSW 18:07:09 81° NNW 18:11:22 10° ENE daylight
16 Feb - 19:43:48 10° WNW 19:47:58 61° N 19:52:09 10° E visible
16 Feb - 21:24:28 10° WNW 21:28:40 73° SSW 21:32:53 10° ESE visible
16 Feb - 23:05:42 10° W 23:08:46 20° SW 23:11:51 10° S night (unlit)
17 Feb - 14:48:32 10° SE 14:49:22 10° SE 14:50:14 10° ESE daylight
17 Feb - 16:25:09 10° SW 16:29:11 46° SSE 16:33:13 10° ENE daylight
17 Feb - 18:05:30 10° W 18:09:41 69° NNW 18:13:54 10° ENE daylight
17 Feb - 19:46:22 10° WNW 19:50:33 66° N 19:54:44 10° E visible
17 Feb - 21:27:01 10° WNW 21:31:07 54° SSW 21:35:15 10° SE visible
17 Feb - 23:09:03 10° WSW 23:11:01 13° SW 23:13:00 10° SSW night (unlit)
